Location: Newark
(30.0333°N, 31.2167°E)
Time: 10:42:45
(UTC+00:00)

Vanguard 1 - Visible Passes

Search period start: 25 January 2020 00:00
Search period end: 04 February 2020 00:00
Orbit: 651 x 3833 km, 34.2° (Epoch: 24 January)

Date Brightness Start Highest point End Pass type
(mag) Time Alt. Az. Time Alt. Az. Time Alt. Az.
25 Jan 9.9 17:38:47 10° WNW 17:43:21 68° NNW 17:43:21 68° NNW visible
26 Jan 10.5 17:59:40 10° WNW 18:03:16 52° WNW 18:03:16 52° WNW visible
27 Jan 9.7 16:01:02 10° WNW 16:05:21 53° N 16:10:29 12° E visible
27 Jan 11.2 18:20:34 10° WNW 18:23:12 34° W 18:23:12 34° W visible
28 Jan 9.6 16:22:02 10° WNW 16:26:26 58° N 16:30:27 19° E visible
28 Jan 11.9 18:41:31 10° W 18:43:11 22° W 18:43:11 22° W visible
29 Jan 9.5 16:42:58 10° WNW 16:47:28 70° NNE 16:50:27 28° E visible
29 Jan 12.4 19:02:35 10° W 19:03:11 13° W 19:03:11 13° W visible
30 Jan 9.5 17:03:53 10° WNW 17:08:27 89° NNE 17:10:30 41° ESE visible
31 Jan 9.8 17:24:49 10° WNW 17:29:26 68° SSW 17:30:36 53° SE visible
01 Feb 10.3 17:45:50 10° W 17:50:25 48° SSW 17:50:45 47° SSW visible
02 Feb 11.1 18:07:00 10° W 18:10:56 32° SW 18:10:56 32° SW visible
03 Feb 9.3 16:07:51 10° WNW 16:12:16 85° SSW 16:17:32 10° ESE visible
03 Feb 11.8 18:28:30 10° WSW 18:31:12 20° SW 18:31:12 20° SW visible
